OSCAR 7 (AO-7) (7530 NORAD) Tracking and Keplerian Element Data

This shows tracking and keplerian element data for the satellite.

Feedback or suggestion? Click here.




ElementValue
Catalog7530
NameOSCAR 7 (AO-7)
Epoch Orbit1398
Epoch Day322.91107962
Epoch Year2018
RAAN288.0328
Inclination101.7111
Eccentricity0.0012442
Argument of Perigee36.8336
Mean Anonmoly25.4618
Mean Motion12.53635401
Decay Rate-3.1E-07
L11 07530U 74089B 18322.91107962 -.00000031 00000-0 87434-4 0 9999
L22 07530 101.7111 288.0328 0012442 36.8336 25.4618 12.53635401 13989

Live tracking and technical data element details for OSCAR 7 (AO-7) (NORAD 7530). OSCAR 7 (AO-7) can be tracked NOW for your location showing map with azimuth and elevation plus other details from your city location.

Track the satellite on the map from your city or location and see movement details for azimuth, elevation, latitude, longitude, range, height, and movement on the map or in text.







IsCatalogInMostPopularTable: catalog: 7530, numindb: 543
Update: records affected: 1



GetName: 7530 OSCAR 7 (AO-7)

Hit Count: updated at: Mon, 19 Nov 2018 12:06:17 GMT